COSMOS 1293

Satellite information

Favourite Embed

Satellite Type and Status

PAYLOADIN ORBIT

Key statistics

Satellite COSMOS 1293 at a glance.

Uptime

16042

Days in orbit

Revolutions

≈ 12.6

Per day

Orbit

LEO

Low Earth Orbit

Inclination

74.0

Latest

Satellite identification and parameters

Extended collection of information and parameters for COSMOS 1293.

Object identification

Identified? True

Debris? False

Object name: COSMOS 1293

International designator: 1981-074G

Object number (NORAD): 12642

Object ID (CCSDS): 12642

Country: COMMONWEALTH OF INDEPENDENT STATES (CIS)

Current information (Y/N): Y

RCS size: MEDIUM

Orbital parameters

Period: 114.585 minutes

Inclination: 74.0316 deg

SMA: 7814.679 km

Apoapsis: 1464.523 km

Periapsis: 1408.565 km

RAAN: 164.9322 deg

Eccentricy: 0.0035803

Argument of periapsis: 164.6771 deg

Mean anomaly: 223.6573 deg

Mean motion: 12.56712801 rev/day

Mean motion (dot): -0.00000014 rev/day2

B* drag term: 0.000013139 1/REarth

Two-line elements (TLE)

Creation date: July 8, 2025, 2:27 a.m.

Reference frame: TEME

Reference center: EARTH

Epoch: July 7, 2025, 10:16 p.m. UTC

TLE line 0: 0 COSMOS 1293

TLE line 1: 1 12642U 81074G 25188.92835734 -.00000014 00000-0 13139-4 0 9997

TLE line 2: 2 12642 74.0316 164.9322 0035803 164.6771 223.6573 12.56712801 14822

Live tracking on map

Real-time ground track for satellite COSMOS 1293.

In-orbit conjunctions

There are no conjunctions computed for COSMOS 1293, at the moment. Check back to stay up to date, as we update our databases every day.

Go to all conjunctions

Associated space launch

Military communications satellites

COSMOS 1293 was lifted into orbit during the mission ‘Kosmos-3M | Strela-1M 217-224’, on board a Kosmos-3M space rocket.

The launch took place on Aug. 6, 1981, 11:49 a.m. from 132/2.

For more information about the launch, click the button.

Launch to space Kosmos-3M | Strela-1M 217-224
Kosmos-3M | Strela-1M 217-224

Agency: N/A

Status: Launch Successful

Launch date: Aug. 6, 1981, 11:49 a.m. UTC

Rocket: Kosmos-3M

Launch pad: 132/2

Location: Plesetsk Cosmodrome, Russian Federation

...

Latest news about this satellite

There are no fresh news available about this satellite. Check back as we update our databases every day.


Newsletter sign-up

Weekly statistics, charts and insights to help you stay on top of the space industry.